Accueil
METAR-TAF:

METAR-TAF

Aéroports :

Dijon, France

Aéroport de Dijon-Bourgogne

latitude: 47-16N, longitude: 005-05E, altitude: 222 m

Observation

Le bulletin a été fait il y a 28 minutes, à 16:00 UTC
Vent 9 kt de est/nord-est
Température 1°C
Humidité 64%
Pression 1012 hPa
Visibilité 10 km ou plus

METAR: LFSD 221600Z AUTO 06009KT 9999 ////// 01/M05 Q1012

Heure: 17:28 (16:28 UTC)


TAF: absent

Observations et prévisions météorologiques de plus de 4000 aéroports (messages METAR et TAF).

Les stations disponibles sont représentées par des disques jaunes et rouges sur la carte.

Passer la souris dessus pour voir le nom de la station.

Cliquer dessus pour voir les observations et prévisions météorologiques.

Pour changer de carte: cliquez sur les boutons verts avec une croix noire pour zoomer, sur le bouton vert avec un tiret pour effectuer un zoom arrière, ou sur les flèches vertes pour les cartes adjacentes.


METAR-TAF: